Regional Weather Roundup
Issued by NWS Charleston, WV

Home | Current Version | Previous Version | Graphics & Text | Print | Product List | Glossary On
Versions: 1 2 3 4 5 6 7 8 9 10 11 12 13 14 15 16 17 18 19 20 21 22 23 24 25 26 27 28
000
ASUS41 KRLX 242110
RWRRLX
West Virginia Regional Weather Roundup
National Weather Service Charleston WV
500 PM EDT SAT JUN 24 2017

Note: "fair" indicates few or no clouds below 12,000 feet with no
significant weather and/or obstructions to visibility.

WVZ003-242200-
Northern Panhandle of West Virginia

CITY           SKY/WX    TMP DP  RH WIND       PRES   REMARKS
WHEELING       MOSUNNY   77  56  48 W14G25    29.94S
$$

WVZ009-242200-
Northwest West Virginia

CITY           SKY/WX    TMP DP  RH WIND       PRES   REMARKS
PARKERSBURG    MOSUNNY   80  58  46 NW12G18   29.98S
$$

WVZ006-242200-
Western West Virginia

CITY           SKY/WX    TMP DP  RH WIND       PRES   REMARKS
HUNTINGTON     MOSUNNY   81  59  47 W8        29.98S
$$

WVZ015-242200-
West Central West Virginia

CITY           SKY/WX    TMP DP  RH WIND       PRES   REMARKS
CHARLESTON     CLOUDY    79  57  46 SW13      29.98S
$$

WVZ022-031-242200-
North Central West Virginia

CITY           SKY/WX    TMP DP  RH WIND       PRES   REMARKS
CLARKSBURG     MOSUNNY   77  56  48 W13       29.96S
MORGANTOWN     PTSUNNY   79  57  46 SW8G22    29.95S
$$

WVZ025-035-042-045-242200-
Southern West Virginia

CITY           SKY/WX    TMP DP  RH WIND       PRES   REMARKS
BECKLEY        MOSUNNY   76  56  49 NW13      30.05S
LOGAN            N/A     77  59  53 W7        30.02S
BLUEFIELD      MOSUNNY   74  57  55 NW9       30.07S
LEWISBURG      SUNNY     76  52  42 NW8G16    30.04R
$$

WVZ047-242200-
Northern Mountains of West Virginia

CITY           SKY/WX    TMP DP  RH WIND       PRES   REMARKS
ELKINS         CLOUDY    75  53  46 W12       30.01F
$$

WVZ052-242200-
Eastern Panhandle of West Virginia

CITY           SKY/WX    TMP DP  RH WIND       PRES   REMARKS
MARTINSBURG    MOSUNNY   83  57  41 W12G18    29.90S
PETERSBURG     MOSUNNY   83  56  40 W12       29.95S
$$




USA.gov is the U.S. government's official web portal to all federal, state and local government web resources and services.